Theta_e
326 330 329 330 328 325 324 323 321 321 324 322 318 316 320 323 316 312 328 343 332 330 337 336 340 346 343 341 341 338 344 347 346 353 361 358 355 360 368 371 372 372 370 371 370 369 368 365 361 360 360 359 357 356 356 356 356 355 356 356 356 357 359 362 364 364 365 364 364 363 361 359 358 356 355 355 357 358 356 353 354 354 352 351 349 347 345
324 327 328 330 329 326 323 324 325 324 324 323 321 322 324 325 322 321 330 339 337 335 335 334 337 342 339 338 342 340 339 343 350 353 353 347 344 351 365 375 378 378 378 379 381 380 376 369 361 359 358 357 356 356 355 355 354 353 355 354 354 355 358 360 363 365 366 367 365 364 362 359 358 358 357 357 359 359 356 353 354 354 352 350 348 346 346
321 326 328 328 327 327 323 323 326 325 324 323 322 322 324 323 324 325 327 330 333 334 335 336 337 341 343 343 343 343 342 343 347 346 342 341 339 346 362 372 374 380 385 387 389 388 381 371 362 357 357 358 356 355 354 353 352 352 353 354 354 354 354 357 361 365 367 368 367 366 364 361 360 359 359 359 358 358 356 354 354 352 350 349 347 344 345
316 324 327 325 326 326 320 319 324 324 322 321 322 323 324 322 322 324 322 319 325 333 335 334 336 339 342 342 343 345 347 346 344 341 341 345 347 353 364 370 373 378 381 383 385 384 377 370 362 356 356 357 356 354 352 352 351 351 354 356 355 354 354 357 363 367 368 369 369 367 366 364 362 360 360 359 359 359 357 357 355 352 348 347 344 342 344
316 323 325 324 324 320 316 319 325 327 326 325 325 326 326 326 324 322 318 319 329 338 337 335 335 335 337 340 340 341 347 351 350 347 344 343 346 353 361 367 372 374 371 372 377 378 372 369 364 358 356 357 356 355 353 351 350 351 357 359 356 354 355 358 365 369 368 369 369 368 367 366 364 364 362 361 360 360 359 357 354 351 347 344 342 341 342
315 321 324 323 320 315 318 326 329 330 329 328 326 325 327 328 327 325 324 327 333 336 334 334 337 339 341 345 344 340 344 352 354 352 350 345 343 348 354 358 362 369 373 372 372 372 370 367 365 360 357 357 358 356 354 353 351 351 356 360 358 357 356 357 364 368 369 370 370 368 368 368 366 365 363 361 360 359 358 356 354 352 348 345 344 343 343
315 320 323 319 316 318 326 331 333 330 329 329 329 329 329 329 329 330 329 330 332 333 332 332 337 343 343 342 346 344 339 342 349 349 349 350 349 349 355 361 365 374 381 377 373 372 368 364 365 364 360 358 358 358 357 356 354 352 355 361 362 359 357 361 367 370 369 370 370 369 369 368 367 365 362 361 360 358 357 355 354 352 350 348 347 344 343
319 319 318 317 319 326 332 334 332 331 332 331 328 326 328 329 329 331 335 337 336 336 335 330 332 337 336 333 340 342 336 336 338 337 338 342 344 344 351 364 376 382 380 375 373 373 369 367 367 366 363 360 359 359 358 358 360 356 357 366 368 365 366 369 372 371 370 370 370 369 368 367 366 364 362 361 359 358 356 354 354 353 350 349 348 345 343
321 317 315 319 323 326 329 332 334 335 335 335 330 326 330 334 332 333 338 340 339 340 341 339 333 332 332 332 334 332 331 333 333 333 334 334 338 341 342 354 372 379 374 370 372 372 373 372 369 367 367 364 363 363 360 362 365 362 364 373 373 372 375 374 371 370 370 369 369 367 366 365 365 363 362 361 359 357 355 353 352 351 350 349 347 345 344
322 319 318 322 321 321 326 332 335 336 335 337 338 332 333 337 335 334 337 338 340 344 344 342 342 337 333 335 335 332 330 331 330 331 332 332 335 340 339 345 363 372 372 369 368 370 374 373 368 369 370 367 368 368 364 366 369 368 374 379 376 375 376 374 371 370 369 368 367 366 365 364 363 362 362 361 359 358 355 352 350 349 349 348 346 345 344
322 320 319 320 319 323 333 337 337 336 334 336 338 329 328 336 340 341 342 342 343 344 342 343 347 346 339 334 333 332 331 331 330 330 332 333 333 337 338 340 352 365 368 366 364 365 370 372 370 371 371 369 371 371 369 370 372 372 378 380 377 375 375 373 371 370 368 367 366 365 364 363 363 362 361 361 360 358 356 354 351 350 349 347 345 345 346
325 323 321 321 322 330 341 339 335 336 335 337 334 322 325 341 348 344 345 347 346 347 346 346 346 348 347 343 336 332 330 331 333 333 337 340 337 336 339 334 340 360 369 369 368 364 365 370 372 372 371 373 375 374 372 374 374 374 378 377 375 373 372 370 370 368 367 366 365 364 364 363 362 361 361 360 359 358 356 355 353 351 349 346 345 345 345
325 326 324 322 325 337 344 339 334 337 337 333 327 323 333 348 348 344 346 346 347 349 350 349 348 348 348 342 337 336 330 330 337 341 344 348 345 340 338 333 345 366 374 373 369 365 366 371 373 373 375 377 377 376 376 376 374 373 377 376 373 371 369 368 366 366 365 364 363 363 363 362 361 360 359 357 357 356 354 353 351 349 348 345 344 344 343
322 324 325 323 325 336 342 338 336 337 333 328 328 335 346 348 344 344 347 348 351 354 354 354 355 354 350 344 338 336 333 337 349 351 348 347 346 345 345 347 357 368 371 371 369 367 370 374 373 374 377 378 378 378 378 378 376 374 375 375 372 370 368 366 364 364 362 361 362 362 361 360 359 357 355 353 352 351 350 349 347 347 346 344 343 343 343
322 322 323 322 325 333 339 339 338 336 334 335 341 346 346 344 344 347 350 352 352 351 351 353 354 355 356 357 351 343 339 342 349 352 350 348 347 347 349 354 363 368 368 369 369 369 371 373 374 375 378 379 379 379 378 377 374 372 372 371 368 366 365 363 361 361 360 360 361 360 358 357 355 354 352 350 348 348 348 347 346 345 344 343 343 343 342
322 318 321 326 331 334 337 340 340 339 340 343 346 345 345 347 349 350 352 352 349 347 349 350 350 351 354 356 357 355 353 352 352 353 351 347 346 345 344 349 358 366 371 373 371 368 369 371 372 374 377 379 378 377 376 373 370 369 367 366 364 363 362 360 360 360 360 360 359 357 356 355 353 352 351 349 349 349 347 346 346 345 344 343 343 342 340
328 327 332 337 340 338 337 340 341 340 340 341 341 344 348 351 350 348 349 349 347 347 347 347 348 351 352 353 354 356 357 357 358 361 360 356 355 356 355 354 356 361 370 375 373 370 372 373 374 375 376 375 375 374 373 370 368 367 366 364 363 362 360 360 360 360 359 358 357 356 355 354 352 350 349 349 350 349 345 344 344 344 342 341 340 339 339
340 343 343 339 339 339 336 337 338 338 339 341 342 345 347 346 344 343 343 345 346 346 345 346 349 350 350 352 354 353 353 354 354 357 358 356 356 358 357 354 355 358 364 366 367 369 372 372 373 374 372 372 373 372 370 368 367 366 365 363 362 361 359 359 359 359 358 356 356 355 354 352 350 349 349 350 350 347 343 341 342 342 341 339 338 337 338
344 347 347 341 340 342 339 336 336 336 338 340 342 344 342 341 340 339 338 339 340 340 340 343 345 344 344 348 351 351 352 352 351 352 352 352 354 355 352 351 353 356 358 360 361 363 364 365 366 367 368 370 370 368 366 365 364 363 361 360 359 358 357 356 356 357 356 355 354 354 351 350 349 348 347 347 346 344 340 339 340 341 340 339 338 338 337
343 345 345 341 340 341 339 337 337 337 337 338 338 338 338 337 336 336 335 336 335 335 337 339 340 340 340 342 344 346 348 350 353 353 352 353 355 352 348 348 350 351 352 355 357 357 357 359 360 360 363 367 367 365 366 364 362 360 358 357 357 356 355 354 355 355 354 353 353 351 350 349 348 347 346 345 344 341 339 337 339 340 340 339 338 337 336
344 346 343 340 340 340 338 336 336 336 336 336 335 334 334 333 333 333 332 332 333 334 336 337 339 339 339 340 341 341 342 346 351 353 352 352 352 351 349 350 353 354 354 356 357 357 356 359 362 363 365 367 366 365 364 361 359 357 356 355 355 355 354 354 353 353 352 352 351 350 348 347 345 344 345 345 342 339 337 337 338 339 339 338 336 335 334
345 346 343 341 342 340 337 335 333 332 332 332 332 332 332 331 332 331 330 330 330 330 331 334 338 340 340 341 341 341 341 343 345 347 349 349 349 349 350 350 352 353 353 354 356 357 358 360 364 365 366 366 365 362 360 358 357 356 355 355 355 354 353 353 352 351 350 349 350 349 345 343 340 339 340 343 341 338 337 338 338 338 338 337 336 336 336
341 341 341 341 341 338 335 333 331 329 328 328 329 329 329 329 329 329 328 328 328 327 327 328 333 337 339 340 341 341 340 340 340 343 347 350 351 351 351 353 355 356 357 357 359 359 359 360 361 361 360 360 360 360 358 357 355 355 355 354 353 353 353 351 350 350 349 347 348 347 343 340 338 336 335 337 338 337 336 337 336 336 336 336 335 335 335
339 339 340 339 337 334 333 331 329 328 327 327 328 327 327 327 327 327 327 326 327 328 328 328 328 330 332 334 336 338 339 339 339 339 342 345 348 350 350 353 356 358 358 358 358 358 359 358 358 357 355 355 356 358 357 355 354 354 354 353 353 352 351 350 349 348 347 347 347 346 343 340 339 337 335 334 332 332 334 335 335 335 335 334 333 333 333
338 339 337 334 333 332 331 330 329 328 327 328 329 328 328 327 327 328 328 327 327 328 329 328 327 328 330 331 332 333 335 336 335 335 337 339 343 346 348 351 353 355 356 356 356 356 356 356 356 355 354 354 356 356 356 355 354 354 353 352 351 350 350 349 348 347 347 346 346 346 344 342 341 340 338 336 333 331 331 332 334 333 333 332 332 332 332
337 335 333 331 331 330 330 329 328 327 327 327 328 328 328 328 328 329 329 328 327 327 327 327 327 328 329 330 330 331 332 332 333 333 333 335 337 341 345 348 350 352 353 354 354 354 353 353 354 353 353 354 355 355 356 354 353 353 352 351 350 349 349 348 347 347 346 345 345 345 344 343 343 341 340 340 338 333 330 330 330 330 329 329 330 331 331
335 334 333 332 331 330 329 328 327 327 326 326 326 327 327 327 327 327 327 327 327 327 327 327 328 329 329 329 330 332 331 331 332 332 332 333 334 336 340 344 347 351 353 353 352 352 352 353 353 353 352 353 354 354 354 354 353 354 353 351 350 349 348 347 346 346 345 344 344 344 343 342 342 342 341 340 339 336 333 331 330 328 326 325 326 328 329
333 331 330 330 329 329 328 326 326 326 325 325 326 325 324 325 325 325 325 326 327 328 327 327 329 332 331 329 330 331 330 329 332 332 331 332 332 332 334 339 343 346 350 352 352 352 350 350 351 353 352 352 352 353 354 354 354 353 352 351 349 348 347 347 347 346 345 344 343 343 343 342 342 341 340 340 339 337 334 332 332 330 325 323 323 325 325
330 328 327 327 327 327 326 325 325 325 325 325 325 324 323 324 326 326 325 325 326 327 327 327 328 331 331 330 330 331 331 330 332 332 331 331 333 333 334 336 338 341 345 348 350 351 351 350 350 351 351 350 350 352 352 351 350 349 348 348 349 348 348 347 346 345 344 343 342 343 342 342 341 340 340 340 338 336 334 333 333 330 325 321 322 322 322
328 326 326 326 326 325 325 325 324 324 325 325 326 326 325 326 326 327 327 326 325 325 326 327 327 329 330 330 331 332 332 331 332 333 331 332 335 336 336 337 338 341 344 345 347 348 349 349 348 348 348 348 348 349 349 348 348 347 347 347 347 347 345 344 343 343 342 342 342 342 341 341 340 339 337 337 337 335 334 335 334 330 325 323 323 323 322
326 326 325 325 325 325 325 326 325 326 325 325 326 327 328 328 328 329 329 328 327 326 326 327 327 327 329 331 331 331 332 333 333 334 333 334 336 337 337 338 339 341 341 342 345 347 348 347 347 347 346 346 346 347 346 344 344 344 344 344 344 343 342 341 340 341 341 341 341 341 340 339 337 336 335 335 335 333 334 335 334 331 328 327 327 326 323
324 324 324 324 324 324 325 326 325 326 326 326 326 327 328 329 330 330 330 329 328 326 327 328 328 328 329 331 331 330 331 332 333 333 333 334 334 335 335 335 336 338 339 340 342 345 346 345 346 346 345 344 345 345 343 341 340 340 341 342 342 342 342 341 341 340 340 340 339 339 338 337 335 334 334 334 332 332 334 336 335 332 330 330 330 327 324
325 325 325 325 324 325 325 325 325 325 325 325 325 326 326 327 328 329 330 330 328 327 329 330 330 329 329 330 330 330 329 331 332 332 332 333 333 334 334 333 333 335 337 339 341 343 344 344 344 344 343 342 341 341 341 340 339 339 340 341 341 341 340 340 340 339 338 337 336 335 334 334 333 334 334 333 333 333 334 335 334 333 332 332 331 327 324
324 324 325 325 325 325 325 325 324 325 324 324 324 325 324 324 325 326 328 328 327 327 328 329 329 329 328 329 330 330 329 331 332 333 335 335 334 333 333 334 334 333 334 335 338 341 342 343 344 342 341 340 339 339 339 338 336 335 336 337 337 337 336 336 337 336 333 332 333 333 333 334 335 334 333 333 333 334 333 332 332 332 332 333 332 328 326
322 322 323 323 323 324 324 324 324 324 324 324 324 324 325 325 324 324 326 326 326 327 328 328 328 328 327 328 330 330 330 331 332 334 336 337 336 335 334 335 335 335 335 336 338 339 341 343 343 342 340 339 338 337 337 334 332 332 332 332 333 334 333 333 334 334 332 332 334 335 335 335 334 333 333 333 332 332 332 331 331 331 331 331 331 329 327
322 322 322 322 322 323 323 323 323 324 324 325 325 325 325 325 325 325 325 326 327 327 327 327 328 328 328 329 330 329 329 330 332 334 335 336 337 337 337 336 336 336 337 337 338 338 338 340 341 341 340 337 336 336 335 333 333 332 331 332 332 333 332 333 334 335 335 335 335 335 334 334 333 332 332 332 331 331 331 330 330 330 331 331 330 329 328
321 322 323 323 322 322 323 324 324 325 325 326 326 326 326 326 326 326 326 327 328 328 327 327 328 328 328 328 328 328 329 330 332 333 334 335 335 336 336 336 336 336 337 337 337 337 337 338 338 338 337 337 336 335 335 335 334 333 331 332 333 333 333 334 334 334 334 335 334 334 334 334 334 333 332 332 332 331 330 328 328 329 330 331 330 328 327
322 322 323 323 323 323 324 324 324 325 325 326 326 326 327 327 327 327 327 327 328 328 327 327 328 328 328 329 329 328 329 330 331 332 333 334 334 335 335 335 335 335 335 336 336 337 337 338 338 337 337 336 335 335 334 334 335 334 332 332 332 332 332 332 332 332 332 333 333 334 333 331 332 332 331 330 330 329 329 329 328 328 329 330 329 328 327
322 323 323 323 323 324 324 324 325 325 325 326 326 326 327 327 327 327 327 326 326 327 328 328 329 328 328 329 329 330 330 330 331 331 332 333 333 334 333 333 333 332 333 333 333 334 336 336 335 334 335 334 332 331 332 332 333 332 332 331 331 330 330 330 329 330 332 332 332 331 328 327 329 330 329 328 329 329 329 329 328 327 327 327 327 327 327
323 323 323 323 323 324 323 323 324 324 325 325 325 325 326 326 325 325 326 325 326 327 328 329 329 329 329 329 329 330 330 330 330 330 331 331 332 332 332 332 331 331 331 331 331 332 334 334 333 332 333 332 330 329 329 330 330 329 330 330 330 330 330 330 330 331 331 330 329 328 327 327 328 329 328 328 328 328 328 328 327 327 327 326 325 325 325
324 324 324 323 323 323 323 323 324 324 324 324 324 324 324 324 324 325 325 325 325 326 327 328 329 328 328 327 328 329 329 330 330 330 330 330 331 331 330 330 330 331 330 330 330 330 331 332 331 332 332 331 330 328 328 328 328 327 328 328 328 329 330 329 329 329 329 328 328 328 327 328 328 328 328 328 328 328 328 327 326 326 325 325 324 324 323
324 324 324 323 323 324 324 324 324 324 324 323 323 323 323 323 324 324 324 324 324 325 325 326 327 327 327 327 327 327 328 329 329 330 330 330 329 329 329 329 330 329 329 329 330 330 330 330 330 330 329 329 329 328 328 328 328 328 328 327 328 328 328 328 327 327 328 328 328 328 328 328 328 328 328 327 327 326 326 325 325 324 323 323 322 322 321
324 324 324 324 324 324 324 323 323 323 323 323 322 322 322 323 323 323 323 323 323 324 324 324 325 326 326 326 326 327 327 327 327 327 328 328 327 327 327 328 328 328 328 328 329 328 327 327 327 327 327 327 327 327 327 328 328 328 328 327 327 327 327 327 327 327 327 328 328 328 328 328 328 327 326 325 325 324 324 323 323 322 321 321 320 319 319
323 323 323 323 323 323 323 322 322 322 322 322 322 321 322 322 322 322 323 323 322 322 323 323 324 325 325 325 325 326 326 325 325 326 327 326 326 326 325 325 326 326 326 326 326 325 324 324 323 322 322 323 322 323 324 326 326 325 324 324 324 325 325 325 325 326 326 327 327 327 326 327 326 325 324 323 323 322 321 321 320 319 319 319 318 318 318
321 321 321 321 321 321 321 321 321 321 321 321 321 321 321 321 321 321 321 321 321 321 321 321 322 322 323 323 324 324 324 324 324 325 326 326 325 325 324 323 324 324 325 325 325 324 322 320 319 318 318 318 319 321 322 323 322 322 321 321 321 321 321 321 322 323 324 324 324 324 324 324 324 324 323 322 322 321 319 318 318 319 319 318 318 317 317
321 320 320 320 320 320 320 319 320 320 320 320 320 320 319 319 319 319 319 320 320 320 319 319 319 320 320 322 322 321 321 321 322 323 324 324 324 323 323 322 322 322 322 323 324 323 320 318 317 316 316 316 318 321 322 321 319 319 319 320 320 320 319 319 320 320 320 321 322 322 322 322 322 322 321 320 319 318 317 317 317 317 317 317 316 316 315
319 319 319 319 319 318 318 318 318 319 319 320 321 320 318 317 317 318 318 318 319 319 318 318 319 318 318 319 319 319 319 319 319 319 320 322 323 323 322 321 319 319 320 321 323 323 321 319 317 316 315 315 317 320 321 320 319 319 319 319 319 319 319 319 319 319 318 319 319 319 319 320 320 320 319 318 317 317 317 316 316 316 316 315 315 315 314
319 318 318 318 318 318 319 319 318 319 319 320 320 320 318 317 318 317 317 317 318 318 317 317 318 318 318 318 317 317 317 318 318 318 318 318 319 320 320 320 318 318 319 321 322 322 321 319 317 317 316 316 317 319 321 321 320 319 318 318 318 318 318 318 318 318 318 318 318 318 318 318 318 318 318 318 317 317 317 316 315 315 315 315 314 314 314
320 317 317 318 318 318 319 319 319 319 319 319 319 318 318 317 317 317 317 317 317 317 316 317 317 317 317 317 317 317 317 317 317 317 317 317 317 317 318 319 319 319 318 319 320 321 321 320 318 317 317 318 319 320 320 321 321 320 319 318 318 318 318 318 318 317 317 318 318 317 317 317 317 317 317 317 316 316 316 316 315 315 314 314 314 314 313
321 318 318 319 319 318 318 318 318 318 318 318 317 317 317 316 317 317 317 316 316 316 316 316 316 316 316 316 316 316 316 316 316 316 316 316 316 316 316 317 318 318 318 318 318 320 321 320 319 318 318 320 321 320 320 320 321 321 320 319 318 317 317 317 317 317 317 317 318 317 317 317 317 317 316 316 316 316 316 316 315 315 314 314 314 313 313
321 319 318 318 318 318 318 317 317 317 317 316 316 316 316 316 316 316 316 316 316 316 316 316 316 315 315 315 316 315 316 316 316 316 316 316 316 316 316 315 316 316 316 317 317 318 319 320 320 320 321 321 321 320 320 320 320 320 320 319 319 318 317 317 317 316 316 316 316 316 316 317 317 316 316 316 316 315 315 315 315 315 314 315 314 314 313
319 318 318 318 318 317 317 316 316 316 316 316 316 316 316 315 316 316 315 315 316 316 316 316 316 315 315 315 315 315 315 316 316 316 315 315 315 315 316 316 316 316 316 316 317 317 317 318 318 320 321 321 320 319 319 319 319 319 319 318 318 318 318 318 317 317 317 316 316 316 316 316 316 316 316 315 315 315 315 315 315 315 314 314 314 313 313
Wind_Speed
24 22 19 20 18 17 19 21 23 24 24 25 23 20 20 17 12 11 10 11 11 13 15 15 10 7 8 8 8 11 10 8 9 9 10 14 16 15 14 14 15 15 14 13 13 14 15 18 24 26 27 31 31 30 33 35 36 38 38 37 38 39 38 37 37 39 39 38 38 38 38 39 39 40 40 39 38 36 37 38 36 37 41 39 35 32 30
24 26 24 23 21 18 20 21 21 23 23 25 25 23 24 22 17 17 15 12 14 14 15 18 15 9 9 11 11 12 14 11 8 8 8 11 14 13 12 13 13 13 14 13 13 14 15 16 21 24 26 30 31 30 33 35 35 36 38 38 38 39 39 37 37 38 38 38 38 38 39 40 40 40 40 40 39 37 37 39 36 34 37 36 33 32 30
18 24 25 26 24 21 21 20 20 20 21 24 24 22 21 19 17 20 22 17 13 11 11 16 15 10 9 10 10 12 13 13 11 10 9 10 11 9 11 12 12 12 12 12 12 13 15 17 22 26 27 30 32 32 33 36 35 34 36 39 39 39 40 39 38 38 38 37 38 38 39 40 40 39 39 39 39 37 36 37 33 31 31 29 29 32 31
13 19 23 26 26 23 22 21 22 23 21 20 19 19 19 17 15 17 20 17 11 8 10 14 16 15 13 11 12 11 9 10 13 13 11 10 9 7 12 12 12 13 14 13 13 13 15 17 22 27 28 28 31 33 34 35 36 34 34 38 40 40 39 38 37 38 38 37 37 37 37 38 38 38 37 36 35 33 33 33 30 27 28 30 31 32 30
11 16 20 20 20 19 18 18 21 22 20 19 19 18 18 18 17 14 12 12 9 7 10 14 17 18 17 15 14 14 11 9 11 12 11 12 12 9 12 11 10 13 14 14 14 14 15 18 24 29 30 29 30 34 35 34 36 34 32 36 40 38 38 37 37 38 38 36 36 36 36 36 35 33 33 32 31 31 30 29 27 25 26 28 30 30 29
11 15 16 14 14 15 13 13 17 20 21 22 21 19 17 19 19 15 13 14 12 9 10 12 14 14 12 12 14 15 14 11 10 10 10 13 14 12 13 13 13 12 12 12 13 15 18 23 27 30 31 31 31 34 33 32 34 34 31 34 39 38 38 38 37 37 37 35 35 35 34 32 31 30 31 32 31 30 27 25 24 23 22 24 26 27 27
10 11 13 13 13 12 10 10 14 18 21 22 21 20 19 18 18 17 17 16 14 14 14 14 12 9 9 10 9 11 13 13 13 11 9 11 13 11 8 11 14 13 12 12 12 15 20 25 26 27 28 30 31 32 32 31 33 35 32 32 36 38 37 36 36 37 38 36 34 33 31 30 30 31 31 30 28 26 23 21 22 22 21 22 23 24 23
9 9 12 12 9 7 9 13 13 13 16 18 18 18 18 18 18 14 9 8 8 9 12 14 13 10 12 14 10 8 10 13 14 16 16 16 15 12 8 8 11 13 14 15 15 18 21 23 24 25 28 31 32 33 33 32 32 34 31 28 32 35 33 34 37 40 41 39 34 30 29 29 29 28 28 27 25 23 21 19 18 19 20 21 21 22 22
9 10 11 9 8 8 11 14 13 9 8 10 10 11 12 13 13 9 6 8 11 12 10 11 13 13 13 13 11 15 19 18 17 18 21 20 17 14 12 10 11 14 17 19 19 20 21 22 24 27 29 31 31 32 33 31 30 32 28 24 30 32 28 30 36 38 38 36 31 27 28 28 24 23 24 24 23 22 21 19 16 15 16 18 19 21 22
9 10 10 9 10 11 10 11 11 6 3 1 2 3 6 6 8 8 7 7 8 11 14 15 11 9 12 10 9 15 22 23 22 22 21 20 17 13 12 11 12 15 19 21 21 22 22 23 26 27 29 31 30 28 30 30 28 29 24 20 26 28 24 24 29 30 30 30 28 26 26 26 22 20 20 19 18 19 19 17 16 13 13 15 17 20 21
8 11 11 10 10 8 7 10 11 8 4 3 5 3 6 4 5 7 7 8 7 8 10 13 12 8 8 9 8 11 16 20 23 24 21 19 18 14 13 14 11 14 19 21 20 21 22 22 26 28 29 30 28 26 28 28 28 27 22 20 24 25 23 23 25 26 26 27 27 25 23 21 19 18 18 17 16 17 16 16 17 16 15 15 16 18 17
7 9 9 8 7 3 3 7 9 6 4 4 1 7 5 3 7 9 9 8 9 9 9 9 9 7 6 8 10 11 15 18 17 16 13 11 14 15 15 20 15 12 19 18 16 17 19 22 26 29 29 28 25 24 25 26 27 26 24 25 28 28 25 24 24 25 25 26 25 22 20 20 19 19 19 19 18 18 17 16 18 19 18 17 16 15 14
8 8 7 7 6 3 5 7 6 5 3 3 6 8 2 5 7 8 9 9 9 10 10 8 7 8 8 11 15 16 20 19 8 3 6 8 6 8 11 16 14 11 17 16 15 18 21 24 25 27 27 25 22 22 23 23 25 26 26 29 31 30 27 25 25 26 26 25 24 21 21 22 22 21 21 20 20 21 19 18 18 19 20 17 14 13 13
9 9 8 8 6 3 4 6 6 7 5 7 5 2 3 5 7 8 9 10 12 12 11 9 9 12 16 18 18 19 22 16 4 7 7 8 10 7 7 11 7 10 14 13 16 19 21 23 24 25 25 21 19 21 20 20 23 25 28 31 31 30 28 26 25 26 24 24 23 22 22 22 21 20 20 20 20 21 20 18 17 18 17 13 11 11 13
8 9 9 9 7 5 8 6 7 8 5 2 2 4 5 6 8 9 8 11 13 12 11 12 13 16 19 20 19 19 20 12 6 12 7 3 3 6 9 9 1 9 10 10 14 17 20 23 23 24 23 19 18 19 18 20 25 28 30 32 32 30 28 26 26 25 24 24 24 24 24 23 22 22 20 19 20 19 17 16 17 17 15 13 12 13 12
8 9 8 4 5 5 12 8 6 4 3 4 5 5 6 7 9 9 8 10 12 11 11 13 15 16 17 19 19 17 15 11 6 8 6 3 3 1 7 7 4 8 7 8 12 15 19 23 22 22 23 21 19 18 18 24 29 31 32 32 31 29 28 28 27 27 27 28 27 26 27 26 24 23 21 20 19 16 13 14 15 15 14 13 14 13 13
5 3 1 2 4 1 9 6 2 5 8 9 8 9 9 8 9 9 8 8 10 11 12 13 14 15 14 15 16 15 16 17 14 10 9 9 8 6 6 7 9 11 8 8 11 12 14 17 20 22 24 24 21 18 22 28 30 30 30 30 29 29 29 28 27 27 28 27 24 24 25 24 23 22 20 19 18 14 12 14 14 13 12 11 10 10 12
2 5 4 4 4 4 6 6 4 6 10 11 10 11 10 9 10 9 9 10 11 12 13 12 12 13 14 14 13 13 14 15 14 12 12 12 11 10 9 10 15 15 10 8 7 9 15 18 21 24 26 26 25 24 27 30 29 28 29 28 27 27 26 24 23 25 25 23 20 21 22 23 23 23 21 19 17 15 15 15 14 13 13 12 10 9 10
2 3 5 7 10 10 7 5 5 8 11 12 11 10 9 10 11 11 12 13 13 14 15 14 13 13 15 15 13 12 12 12 13 13 12 11 11 11 10 11 6 1 3 5 5 7 12 17 20 20 22 26 29 29 29 28 28 29 29 28 27 26 25 25 25 25 24 22 20 20 20 21 22 21 20 18 17 17 17 16 15 14 13 13 12 11 10
5 2 8 14 17 16 14 10 7 9 12 13 13 12 12 13 14 14 14 14 13 14 15 14 13 14 15 14 14 14 13 11 9 10 10 7 6 5 3 5 7 11 8 7 8 6 8 15 19 19 20 24 27 29 28 26 27 28 28 27 26 25 25 25 25 24 23 23 22 20 17 17 18 17 17 17 17 17 16 15 15 15 14 13 14 14 13
4 3 10 15 17 15 15 15 14 13 13 14 15 15 15 15 15 15 16 16 14 14 14 12 12 13 12 13 14 15 14 13 11 8 6 4 4 7 5 2 9 14 12 10 11 9 8 13 18 20 22 23 25 26 25 25 27 27 26 25 24 22 22 22 22 22 22 21 22 20 18 17 17 17 17 18 18 17 14 12 13 14 14 13 13 13 13
3 4 4 6 10 11 10 13 16 16 15 16 17 17 16 16 15 15 16 16 15 15 14 12 10 9 9 10 11 11 10 10 10 8 2 3 3 6 11 12 16 20 18 13 13 12 10 12 18 20 21 22 22 23 23 24 26 27 25 23 22 21 20 20 21 21 20 20 21 21 20 20 19 17 14 14 17 19 15 12 11 12 12 10 7 6 6
5 5 4 2 8 11 10 11 14 14 14 15 17 17 16 16 15 15 15 15 15 15 14 13 12 10 9 9 10 9 8 7 7 8 4 4 6 8 12 14 14 16 17 15 14 13 12 13 17 18 19 20 21 22 23 24 25 26 24 22 20 20 20 21 21 20 19 20 21 21 21 21 21 20 18 17 18 18 15 13 11 10 9 7 4 3 3
8 5 3 4 11 14 12 11 13 13 12 13 15 16 16 15 15 15 15 14 13 12 12 13 14 13 12 11 10 8 7 7 8 9 9 10 11 12 14 15 14 15 16 16 15 14 13 14 16 16 17 19 19 20 22 22 22 24 23 21 20 20 20 22 24 21 19 21 21 19 20 20 19 19 20 20 17 15 13 12 10 9 8 7 5 5 5
3 4 8 9 14 15 12 11 13 12 12 12 13 14 15 14 13 14 13 12 12 12 11 11 13 14 14 12 10 8 8 8 10 10 9 12 15 14 15 16 15 15 16 15 15 14 14 15 15 16 16 15 15 17 20 21 20 21 21 20 20 20 20 24 25 21 19 21 20 18 19 19 17 17 17 17 15 13 11 10 9 8 8 8 8 8 8
1 7 10 13 15 13 10 10 12 12 11 12 12 12 13 14 14 14 13 12 12 12 12 11 12 13 13 12 11 9 7 8 12 12 9 10 12 13 14 15 15 15 15 15 15 15 15 15 15 15 14 12 12 13 17 19 20 19 18 18 19 19 21 24 23 19 18 20 19 17 17 17 16 15 14 14 14 15 13 10 8 8 8 8 10 11 10
3 5 7 11 12 11 9 11 11 10 11 12 12 11 11 11 12 13 13 12 13 13 12 12 12 11 11 12 12 10 9 9 11 11 10 10 11 13 13 13 14 14 13 14 14 14 14 14 13 13 13 12 12 13 14 16 19 17 15 17 19 20 23 24 21 18 18 19 18 18 18 16 15 16 15 13 14 16 15 12 10 9 8 9 12 14 13
4 4 6 9 10 11 12 12 11 11 11 10 10 10 9 10 11 13 13 13 13 11 12 13 12 9 8 10 11 10 10 10 9 9 10 11 11 12 13 12 12 12 12 11 11 11 12 13 12 12 12 12 12 13 13 15 16 14 14 18 21 22 23 23 20 18 19 19 17 18 18 16 15 15 15 15 15 16 16 16 14 12 12 12 13 14 14
6 8 10 10 11 11 12 11 11 12 12 10 9 9 9 10 12 11 12 12 12 10 10 11 11 8 8 9 9 8 8 9 9 9 10 11 12 12 13 11 9 11 11 10 8 7 9 11 12 12 12 12 13 13 13 14 15 15 15 18 19 19 19 19 18 18 20 18 17 18 18 17 17 16 16 17 18 17 16 16 16 16 15 16 16 15 15
6 8 11 11 11 12 12 11 11 11 11 10 9 7 8 11 11 9 9 10 9 9 10 9 8 9 8 8 7 7 7 9 10 10 11 13 13 13 15 14 10 9 9 8 6 5 7 10 11 10 10 11 13 14 13 12 14 15 16 17 19 20 20 19 19 19 19 19 19 20 19 18 18 18 17 17 18 18 17 18 19 18 16 16 16 15 16
9 10 11 12 12 12 11 10 10 10 10 10 10 8 7 9 10 9 8 7 6 7 8 8 8 8 8 7 8 8 6 6 8 9 11 12 13 14 15 15 12 8 7 7 5 2 5 9 10 10 10 10 11 13 13 12 13 13 12 14 18 21 22 22 21 19 19 21 22 21 20 19 18 18 17 15 15 15 15 18 18 17 16 15 14 14 18
8 11 12 10 9 10 10 9 9 10 9 9 9 9 8 8 8 7 6 5 4 3 4 6 6 7 7 8 9 9 7 6 6 9 10 11 12 13 13 13 12 11 10 9 7 3 3 5 6 8 10 11 11 12 12 12 13 13 12 15 18 20 21 22 21 19 20 22 22 19 18 17 16 15 14 13 13 13 15 17 17 15 15 15 14 16 20
8 9 10 9 8 9 10 8 7 8 9 8 8 9 8 8 7 5 4 3 3 1 2 3 4 5 6 6 7 8 8 8 8 9 10 10 10 11 10 9 9 9 9 9 8 5 1 6 7 7 9 11 14 15 14 14 14 14 14 16 18 18 17 18 18 18 18 19 18 15 14 14 14 13 13 12 11 12 15 16 15 14 14 14 15 18 20
8 9 8 8 8 8 7 6 6 7 8 8 8 9 8 7 7 5 4 4 4 2 2 4 6 5 4 6 7 7 8 7 6 6 8 9 10 9 7 6 6 6 7 8 9 7 1 5 7 7 9 12 14 14 14 15 15 14 14 16 18 17 15 14 16 16 15 14 13 12 12 12 11 12 12 11 10 15 17 14 13 13 14 13 15 17 18
8 8 8 8 7 6 5 6 6 7 8 8 8 8 7 7 6 5 3 3 3 1 2 4 5 5 5 5 5 6 7 7 7 7 9 10 11 11 9 7 5 4 4 5 7 8 7 4 3 6 9 12 13 12 12 14 15 14 15 16 17 16 15 15 15 14 13 13 13 12 12 11 10 11 11 9 9 12 14 12 12 15 16 15 15 16 16
7 7 6 6 7 6 6 6 7 8 7 7 7 7 7 6 5 4 3 4 4 2 1 1 4 5 4 3 4 5 6 7 8 9 10 10 11 13 13 12 9 6 6 7 10 13 12 7 2 4 6 7 9 10 9 10 14 15 14 15 14 14 15 15 14 12 12 13 12 11 11 11 10 9 9 9 8 9 9 8 10 16 19 17 14 15 16
6 6 6 5 6 7 6 6 6 7 7 6 6 6 6 6 6 6 7 8 9 7 5 6 6 6 6 6 6 6 7 8 9 10 9 9 10 12 13 13 12 10 8 8 10 12 12 11 8 7 5 6 9 8 5 7 12 15 14 13 14 14 14 13 12 12 12 11 11 11 12 12 10 8 7 8 8 8 8 7 8 12 17 16 13 13 16
7 7 6 5 5 5 5 5 5 6 6 6 6 6 6 7 7 8 9 9 8 8 8 8 8 8 8 9 8 9 10 11 11 10 10 10 11 12 11 11 12 11 9 9 10 10 11 12 14 14 13 13 13 12 9 11 12 11 10 11 12 11 12 12 11 11 11 10 10 10 10 9 8 8 7 8 8 8 8 7 7 8 11 15 15 14 13
6 6 6 5 4 3 3 4 5 6 6 6 6 5 5 6 8 9 9 10 9 9 9 9 9 9 9 8 8 9 10 10 10 11 11 11 12 12 12 12 12 12 11 11 12 12 11 12 14 17 16 13 12 13 13 13 11 6 6 9 11 9 10 11 10 9 9 9 8 8 9 9 9 9 9 9 8 7 6 6 6 7 8 11 13 13 13
6 6 6 5 5 4 4 6 7 8 7 8 7 6 5 7 10 10 10 11 10 9 9 8 8 7 8 8 8 9 10 11 11 11 10 10 11 11 10 11 12 12 11 11 12 13 13 12 13 13 11 8 8 11 13 13 11 9 8 7 8 8 8 9 9 9 9 8 8 8 8 8 8 8 8 8 8 7 7 7 8 9 9 8 8 9 10
5 7 6 5 5 6 6 7 8 9 9 9 10 10 10 10 10 10 10 10 10 10 10 10 8 8 8 9 9 10 11 12 13 13 11 9 7 7 6 8 10 11 11 12 12 12 12 12 11 10 8 7 8 8 8 9 9 9 9 7 3 3 4 5 6 7 7 7 8 8 8 9 9 8 7 7 8 8 8 8 7 7 7 7 8 9 10
6 8 9 7 6 6 7 7 8 9 10 10 11 11 12 12 12 11 11 10 10 11 11 11 11 11 11 10 10 11 12 12 13 14 13 11 9 8 6 7 10 12 12 12 12 11 11 11 10 9 9 9 7 5 5 5 5 4 3 1 2 4 5 6 6 6 6 7 7 6 7 6 5 6 7 7 7 7 8 9 9 10 11 13 14 13 14
8 9 9 8 7 6 7 8 9 9 9 10 11 11 12 12 12 12 11 11 11 11 11 11 11 11 11 10 10 10 10 11 12 13 14 14 14 12 10 9 10 12 12 11 10 10 10 10 10 9 9 8 5 3 2 2 4 8 9 8 7 8 8 8 7 7 7 7 7 8 7 4 4 5 6 7 7 9 11 12 13 13 13 12 11 10 10
10 9 8 8 7 5 6 8 9 9 8 9 10 10 11 11 11 11 10 11 10 10 10 9 9 10 10 10 10 8 8 10 11 11 10 9 10 12 12 11 11 11 11 9 9 10 10 9 8 8 7 5 3 2 4 6 7 8 8 6 6 7 7 7 7 8 8 7 7 7 7 6 7 7 8 8 10 12 12 11 11 10 9 7 6 4 4
10 10 11 11 9 7 7 8 8 9 9 9 9 10 10 10 9 9 9 9 9 9 9 10 10 8 9 10 10 9 9 10 10 8 6 5 6 8 9 10 11 11 10 8 8 8 9 8 6 5 3 3 4 7 7 6 3 4 5 2 3 1 2 3 4 7 8 9 8 7 6 6 6 7 8 10 13 13 9 7 7 7 6 6 4 2 2
10 10 11 10 9 9 9 9 10 10 9 9 9 9 9 8 8 8 8 7 7 8 9 9 8 8 8 10 9 8 8 10 10 9 7 7 7 7 7 8 9 9 8 7 7 7 6 6 5 4 3 4 6 8 8 5 2 3 2 3 3 2 2 4 4 3 3 4 6 7 8 8 9 10 11 9 7 5 2 3 4 5 5 3 1 1 2
10 10 9 10 10 9 10 10 10 10 8 7 6 6 6 7 8 8 7 7 6 5 7 9 11 11 12 11 10 10 9 8 9 9 8 6 7 7 5 6 8 8 6 4 4 4 3 2 3 3 3 4 6 9 9 7 3 1 1 2 2 3 4 6 5 5 5 4 4 5 5 3 3 6 7 4 2 2 4 4 3 3 2 2 3 4 5
9 10 10 11 10 9 9 10 10 8 6 6 6 6 9 12 13 12 12 10 7 5 8 13 16 16 14 12 12 13 14 11 10 11 12 9 7 6 5 6 8 9 6 2 2 4 2 0 1 2 4 5 6 8 9 8 5 3 4 5 3 3 5 6 3 2 3 4 4 5 5 4 6 7 6 4 2 3 3 2 4 5 5 8 12 14 14
11 12 13 13 13 13 11 10 8 6 7 9 10 9 10 11 12 12 13 12 9 8 11 14 14 14 13 12 11 13 14 13 11 11 13 13 12 11 9 6 4 5 6 5 3 2 2 2 2 2 4 5 6 7 8 9 9 9 9 7 5 4 5 5 4 4 5 6 4 2 3 6 8 9 8 7 6 4 4 7 8 5 4 9 14 14 11
12 12 12 12 13 13 12 10 8 8 9 11 10 10 9 9 9 9 11 11 10 11 13 13 12 11 12 12 11 12 12 11 11 12 12 12 12 12 11 10 8 6 5 6 7 4 2 3 3 4 4 5 6 7 7 8 9 10 10 9 7 7 6 6 5 6 6 6 5 4 4 6 10 10 9 8 7 7 8 9 6 3 4 4 5 7 10
10 11 12 11 12 13 13 12 11 11 12 11 10 10 11 10 8 8 9 10 10 10 11 11 11 11 11 10 11 12 11 10 10 10 11 12 12 12 12 15 17 14 8 7 9 7 3 3 6 8 8 7 8 8 7 7 8 9 10 10 10 8 7 6 7 8 8 8 8 9 8 8 10 10 8 7 9 10 9 8 8 7 7 7 8 9 12
12 12 11 10 11 13 14 14 14 13 13 12 11 11 12 12 10 9 9 10 10 9 9 9 10 12 13 12 11 11 11 10 9 9 10 12 14 14 13 13 16 15 12 11 13 12 10 9 8 5 5 5 8 10 8 6 7 9 9 10 11 11 10 10 10 10 9 8 8 10 11 11 10 10 10 10 11 11 10 9 10 10 10 11 12 13 13
Wind_Direction
227 232 233 232 225 217 222 224 221 218 222 229 230 228 227 226 232 241 224 205 224 243 243 240 236 216 201 195 214 243 255 238 211 182 153 160 167 163 162 166 171 179 189 196 196 195 193 189 188 188 187 191 195 193 191 193 193 191 188 186 186 188 190 192 192 193 196 198 199 200 200 202 203 205 206 207 209 210 209 210 211 212 212 208 203 200 199
219 225 232 239 241 232 225 228 228 221 218 224 232 235 231 227 231 243 244 226 217 226 238 241 239 228 219 212 202 219 247 254 219 183 176 191 195 181 157 153 168 180 181 185 189 188 186 184 185 186 187 190 194 193 191 194 197 192 186 186 187 186 189 192 192 193 195 197 199 199 201 203 205 205 206 207 210 212 212 214 213 211 209 205 200 201 202
221 218 222 231 240 243 237 232 232 231 225 221 224 232 236 232 229 236 244 244 229 217 231 245 248 233 217 227 221 211 227 246 241 218 208 220 222 192 156 158 175 181 175 174 176 176 179 182 186 187 188 190 193 195 194 195 198 194 186 185 186 187 190 193 193 194 194 196 198 199 200 202 204 206 206 208 211 213 215 217 216 210 205 198 198 206 207
232 222 219 222 228 240 245 238 231 230 230 230 225 221 225 233 236 234 237 242 239 223 225 239 244 234 218 227 247 247 231 227 235 233 227 243 249 189 164 174 181 177 175 175 177 181 182 183 187 189 190 189 190 194 197 196 197 196 187 183 184 187 189 190 190 192 193 194 197 199 199 201 204 206 208 208 209 210 213 216 213 207 201 197 200 209 210
231 231 229 222 220 231 238 237 236 232 231 237 239 226 213 219 232 242 246 248 247 235 230 233 234 230 221 213 224 242 246 233 233 229 216 232 244 207 181 188 187 181 181 179 181 188 187 185 189 191 191 189 189 194 197 196 196 196 187 181 183 186 187 189 189 190 192 192 195 197 199 201 203 205 204 203 204 205 207 210 208 204 202 201 203 209 210
222 229 236 230 223 228 228 228 238 243 241 239 240 237 225 218 219 220 223 234 242 245 251 251 242 233 227 220 213 219 229 235 236 226 211 220 232 217 192 186 187 188 187 183 185 190 191 193 195 194 192 192 192 193 196 196 196 197 190 182 183 186 187 190 191 190 190 192 193 195 196 196 198 198 200 203 206 207 208 209 208 206 204 205 207 209 209
222 224 232 231 224 226 237 238 236 242 249 252 253 249 241 237 237 229 222 224 227 227 234 250 262 262 261 257 231 211 222 236 238 234 225 222 226 225 200 177 176 179 180 181 183 187 193 196 196 195 194 193 193 193 196 197 196 198 195 184 182 187 188 187 187 186 187 188 189 189 188 189 191 194 200 205 207 207 207 208 209 209 206 205 205 205 204
222 217 219 228 234 240 253 256 249 243 247 255 262 260 252 252 257 259 265 282 278 254 234 235 247 262 271 271 261 244 248 251 246 242 237 232 230 232 227 188 169 171 175 179 182 185 191 194 191 192 195 196 195 195 197 199 196 197 197 184 178 182 182 180 181 182 183 184 182 181 183 186 189 194 200 204 203 202 203 204 207 209 207 205 203 201 203
214 223 220 227 250 249 242 243 242 243 248 250 256 262 260 261 268 283 317 314 314 328 315 269 243 233 244 256 256 257 259 257 254 249 241 237 235 234 237 219 183 173 175 178 181 183 187 191 192 193 196 198 197 195 196 197 193 193 193 181 175 177 172 170 175 178 180 182 179 178 182 185 188 194 199 201 202 203 203 202 201 198 195 198 200 203 207
201 221 224 222 232 230 225 230 224 214 243 307 25 305 277 282 298 315 325 308 316 344 337 317 296 250 237 239 233 239 245 249 255 257 250 242 236 240 249 229 188 171 174 177 181 185 188 194 197 195 195 196 195 194 193 191 188 188 182 168 169 169 159 159 169 171 171 174 173 174 180 186 192 197 200 202 205 207 206 204 205 199 190 192 199 202 205
202 216 220 221 228 217 211 234 229 210 205 90 60 289 264 295 338 346 348 336 337 337 325 329 334 312 269 257 242 225 230 239 244 246 246 239 232 239 258 249 211 173 174 180 184 189 193 196 197 195 194 194 191 191 190 185 182 182 171 154 158 158 150 156 165 164 162 166 169 171 174 182 189 194 198 201 204 206 206 209 214 214 208 205 201 196 193
223 225 227 229 236 202 180 226 221 194 164 102 137 241 241 21 15 18 15 357 355 348 336 341 336 319 305 292 283 264 249 247 242 241 248 248 231 221 236 252 242 178 162 172 184 195 199 198 196 193 190 188 185 187 187 178 177 178 164 150 154 155 150 149 154 158 162 166 167 169 171 176 181 185 188 190 190 192 197 204 210 212 216 215 200 184 184
223 225 234 243 240 174 167 204 185 139 136 175 217 234 248 26 5 14 10 352 359 358 348 348 324 306 304 300 301 293 274 261 253 293 335 336 293 223 222 255 253 170 150 165 185 198 200 198 195 188 182 180 179 182 180 173 174 173 157 147 151 153 148 143 146 154 160 162 164 167 171 177 181 183 182 184 185 185 188 194 197 203 211 210 191 182 193
225 223 229 244 247 163 160 210 182 148 190 223 221 218 55 28 2 7 6 360 10 9 359 359 346 331 322 308 302 300 287 266 183 89 45 11 348 336 310 292 264 162 154 170 187 196 196 194 191 180 171 169 167 169 169 165 166 159 147 144 148 148 145 144 151 157 159 160 164 168 170 173 174 174 179 183 182 181 185 190 192 195 201 197 189 195 198
228 228 221 231 240 165 145 198 211 181 190 239 33 46 49 35 11 4 10 18 21 16 8 10 6 358 348 334 322 311 297 275 150 111 100 87 20 356 327 319 266 160 165 174 187 195 190 187 184 171 160 155 153 157 158 158 155 146 138 141 144 144 145 147 152 158 160 162 165 165 166 166 163 165 174 178 176 179 185 185 180 179 183 190 198 197 181
227 232 223 237 274 183 154 174 220 188 103 43 43 42 38 39 25 16 25 30 24 22 24 22 17 13 5 352 346 339 331 338 38 75 78 81 73 336 288 290 240 201 191 171 181 189 185 184 178 165 155 148 144 148 148 146 144 138 136 140 141 143 148 152 154 157 159 162 164 163 163 161 159 163 168 165 165 172 174 165 161 163 173 192 201 187 166
232 233 187 61 359 163 148 141 156 120 84 53 47 47 39 38 36 31 33 32 25 29 38 38 30 21 7 357 0 7 7 7 12 22 30 31 25 2 334 314 273 241 203 170 180 175 162 159 151 144 144 138 130 131 134 135 137 137 138 141 143 145 150 153 154 153 151 153 156 158 160 158 154 156 155 152 157 164 159 152 150 154 169 190 201 184 165
154 79 70 102 82 86 118 112 96 96 77 58 59 62 54 50 52 47 43 40 33 32 36 37 34 23 7 1 11 22 24 21 18 18 23 27 25 19 2 317 270 240 201 169 165 135 119 120 123 128 135 131 124 125 129 131 134 137 138 138 140 143 144 143 142 141 142 144 144 149 154 152 149 150 149 150 160 166 160 154 154 162 173 183 193 195 182
262 88 71 89 79 58 58 92 109 96 80 70 70 75 75 73 67 60 55 51 48 45 39 33 31 26 13 6 9 17 24 28 31 36 37 31 29 22 354 331 323 347 83 66 67 81 98 106 108 112 119 120 122 125 126 127 130 134 135 134 134 134 133 132 133 136 141 144 144 146 148 144 143 148 153 158 166 169 166 160 160 170 180 181 186 193 192
286 127 88 87 81 60 45 51 72 88 92 90 83 80 82 78 70 62 58 55 54 52 47 40 38 33 21 14 17 13 4 359 14 44 54 44 52 68 332 327 54 77 72 79 89 80 93 109 111 111 113 116 120 123 123 125 128 129 130 131 130 129 129 131 135 140 143 145 146 145 143 140 143 153 165 174 175 172 172 170 168 177 186 186 188 189 189
275 146 106 94 87 73 57 54 55 61 78 89 86 81 77 73 70 66 61 57 55 54 50 45 47 45 29 20 23 18 2 344 340 7 46 57 96 121 128 67 71 75 66 66 77 75 88 111 115 114 114 115 117 118 120 123 124 122 124 125 126 128 131 134 139 143 144 144 144 144 145 149 154 162 177 185 176 164 163 166 172 183 188 186 190 190 188
235 191 156 109 94 90 77 68 66 65 68 75 77 75 71 69 68 68 64 58 51 49 45 39 45 57 47 32 30 23 7 347 329 323 7 83 74 91 91 77 68 72 71 68 67 67 74 89 96 101 108 113 115 117 119 123 123 123 125 127 128 132 137 142 147 149 149 149 149 149 152 155 151 146 149 160 158 155 154 153 162 179 180 173 180 179 167
262 256 264 53 94 105 99 85 80 75 71 73 74 73 70 67 62 60 60 56 47 42 38 31 30 40 44 44 46 35 10 357 338 322 338 71 74 73 81 82 81 85 90 92 90 87 88 91 96 104 111 113 115 116 119 124 128 130 132 135 136 141 147 149 150 154 156 157 157 155 154 155 151 139 126 122 131 143 151 150 153 164 165 161 169 163 141
274 239 191 103 103 108 105 94 87 79 73 74 72 69 67 65 62 59 59 56 49 41 34 28 27 27 28 31 40 39 18 1 347 336 355 35 52 57 65 72 76 79 80 80 81 84 87 94 101 107 110 114 120 122 123 128 134 137 140 143 145 149 151 149 152 159 164 166 165 156 148 150 152 143 130 121 118 126 141 150 156 161 162 164 171 171 173
268 149 131 116 107 106 103 93 84 79 78 78 74 69 65 61 59 61 61 58 54 45 34 31 29 26 23 19 18 30 35 6 340 337 7 34 41 44 51 59 65 72 79 83 85 86 88 95 101 103 102 106 114 123 131 138 142 144 149 151 152 153 149 148 157 168 168 166 166 156 147 149 152 149 144 137 129 129 137 148 163 173 175 177 178 174 172
71 100 106 107 102 101 99 88 78 74 75 78 79 76 70 63 60 58 55 55 55 48 38 34 30 24 24 18 4 7 29 16 352 351 14 41 46 47 50 54 60 67 76 83 88 93 97 100 102 106 109 110 113 126 140 146 148 153 159 157 154 152 147 150 163 169 161 160 164 158 152 155 157 158 160 156 151 151 152 154 167 184 193 192 185 180 173
111 117 117 107 95 85 82 84 81 76 72 72 75 75 71 69 67 60 52 46 46 46 42 35 27 19 22 20 4 355 12 22 10 6 16 32 44 49 51 56 62 68 74 81 89 97 103 105 107 112 119 124 130 141 152 153 152 155 156 149 147 147 148 154 165 164 158 164 167 158 157 167 172 170 170 166 162 165 170 171 169 168 175 182 179 177 177
88 94 93 96 95 91 89 88 87 82 75 71 75 77 72 68 66 62 54 41 32 34 39 35 24 13 15 17 6 356 8 18 16 14 16 19 31 44 46 49 63 71 70 69 76 90 105 112 114 114 117 124 131 140 153 158 157 154 144 140 144 148 152 161 169 163 158 163 163 155 157 170 177 176 175 173 172 176 180 177 165 153 156 166 167 168 174
72 88 92 98 104 104 98 92 86 83 80 76 77 82 81 75 67 58 53 44 30 21 26 28 24 19 16 15 8 360 3 7 7 11 16 16 23 33 30 29 59 86 82 66 55 64 90 104 107 111 122 132 135 138 147 158 165 166 157 149 150 154 157 160 160 153 150 156 158 155 158 169 178 181 180 177 176 177 176 167 155 149 155 161 159 158 165
48 92 106 108 106 102 98 94 91 91 90 84 80 79 80 82 78 66 54 48 37 24 16 12 19 23 19 17 15 9 3 355 349 358 15 18 20 26 24 21 40 81 88 75 58 56 88 105 109 114 127 136 138 141 146 149 155 162 161 152 151 155 155 151 151 153 156 159 158 157 162 172 180 183 183 181 179 178 170 157 149 148 154 158 158 159 161
42 63 83 95 100 99 98 97 97 97 94 90 87 83 75 76 80 77 65 52 42 28 8 357 8 20 14 4 3 6 8 351 336 349 14 20 17 22 24 24 30 41 44 46 50 89 130 128 128 135 142 143 142 146 146 137 130 135 141 145 152 158 158 157 160 164 161 156 156 161 171 178 181 182 182 183 184 180 163 147 142 146 153 155 157 162 163
66 63 65 73 84 90 90 90 94 94 92 90 86 81 76 76 80 83 83 73 58 23 335 333 350 357 348 344 347 357 17 28 8 7 16 19 18 21 22 23 27 22 12 12 15 21 130 136 141 145 146 148 152 153 147 136 130 132 144 158 165 166 163 160 159 156 151 151 155 164 173 176 179 182 179 180 187 178 155 142 142 149 153 155 159 167 169
75 72 67 64 67 75 78 79 83 85 83 80 75 71 72 77 80 89 107 110 94 51 287 290 293 300 321 342 344 351 14 28 25 19 16 16 20 23 22 26 29 18 6 5 0 352 113 148 160 164 157 157 164 168 164 153 143 144 152 158 157 153 153 155 151 145 146 152 159 168 175 177 179 180 178 182 181 156 140 142 150 150 150 156 166 174 177
74 82 81 71 63 64 70 76 84 86 82 79 77 76 76 76 77 83 95 96 83 54 344 315 300 304 358 21 7 1 15 28 26 19 17 17 18 17 21 39 46 33 20 6 344 333 21 145 161 170 164 163 168 176 176 163 149 143 145 144 139 135 136 140 141 142 151 161 164 169 175 178 176 173 175 182 167 144 142 154 159 148 147 156 166 176 184
89 92 90 83 74 64 61 68 78 82 82 83 84 81 79 79 80 82 88 92 99 150 268 310 338 6 42 47 24 13 20 26 23 20 18 16 10 8 17 39 58 68 66 29 7 21 55 91 142 157 162 166 167 168 165 155 146 143 144 141 137 132 131 136 142 150 161 169 170 170 173 173 169 164 163 167 158 149 155 166 159 151 156 163 164 172 185
85 85 84 83 80 69 56 56 63 66 68 71 72 72 73 75 78 82 84 77 73 83 179 62 42 34 38 50 51 40 29 27 30 29 25 23 22 24 32 40 45 59 69 46 38 50 57 52 80 158 173 168 155 156 162 150 139 136 136 137 138 140 146 156 161 157 154 157 160 160 154 147 144 147 152 155 155 158 167 173 159 151 155 160 165 176 185
82 76 68 66 68 64 53 46 51 61 63 59 56 58 61 61 57 52 51 48 41 33 37 53 53 38 24 25 40 49 44 41 45 45 41 42 44 44 44 45 44 48 50 35 32 43 44 41 65 111 121 100 105 123 153 150 138 138 142 145 148 153 158 160 157 150 150 153 146 135 130 130 132 140 151 158 163 168 178 193 184 161 152 151 159 174 183
94 86 77 65 57 56 53 50 58 67 70 64 53 49 55 65 66 62 60 57 50 42 46 52 52 48 39 31 35 45 46 44 50 57 58 58 56 52 50 47 43 44 45 36 35 45 49 53 71 86 85 79 86 96 112 129 136 143 151 150 147 151 156 155 151 151 154 146 129 126 136 146 152 161 173 182 190 193 191 193 197 181 161 156 160 167 177
108 101 96 89 79 72 82 92 86 77 71 69 63 51 56 76 83 79 74 69 62 56 57 55 50 50 50 45 44 48 49 47 52 59 61 64 65 62 58 52 47 48 49 44 46 58 69 75 82 82 76 72 78 83 95 116 128 130 141 150 152 155 157 157 154 149 143 136 136 153 172 177 177 183 191 192 193 195 190 182 188 195 190 182 179 177 177
111 102 94 98 111 118 111 105 103 100 94 92 93 93 87 84 83 80 75 70 65 62 61 57 49 48 52 51 51 53 52 49 50 53 59 68 72 70 63 54 48 50 50 46 49 62 73 81 88 87 80 84 96 86 80 92 101 85 78 111 143 153 153 156 158 154 152 159 170 175 180 185 188 192 196 194 191 193 193 192 195 201 207 209 200 186 180
93 104 102 96 95 93 87 84 89 92 89 85 87 88 85 80 77 75 73 73 72 69 65 61 58 58 57 55 57 61 63 61 56 52 50 54 61 67 69 56 42 39 43 44 46 58 72 79 83 84 81 98 123 113 87 87 96 80 59 54 77 133 150 166 173 169 170 179 185 187 196 203 201 198 200 200 195 191 189 190 193 198 208 216 208 194 190
81 94 97 92 88 89 91 90 88 88 85 81 77 75 74 73 72 70 69 69 70 72 71 66 62 60 59 59 59 59 61 67 70 66 60 56 55 58 67 62 46 44 52 57 52 54 66 71 69 71 75 82 97 113 109 110 130 138 127 128 227 212 204 205 204 200 200 199 197 206 219 215 195 192 196 191 185 189 193 191 189 191 200 211 213 205 200
101 95 93 93 92 94 97 97 94 90 86 81 78 75 73 72 71 70 68 63 59 63 70 72 70 66 60 56 57 58 54 53 60 65 63 61 60 59 61 64 59 55 59 64 61 59 63 63 57 61 78 92 106 120 117 155 188 181 177 187 202 205 207 212 213 213 219 215 202 203 210 202 185 198 201 191 194 206 205 200 199 203 208 216 223 221 213
107 107 106 103 101 100 98 95 94 92 87 82 78 76 76 76 76 77 77 72 63 57 57 60 69 79 76 62 55 60 60 54 56 61 60 58 59 56 52 53 58 57 55 57 60 60 61 61 55 56 69 87 92 14 325 280 234 185 164 183 204 198 200 209 201 192 202 214 208 197 192 186 190 202 203 202 213 221 216 209 212 215 209 203 207 221 242
91 96 103 109 115 115 106 96 94 98 103 102 94 83 78 78 79 80 83 85 80 72 62 49 43 59 89 91 77 68 74 79 77 72 65 59 60 56 51 51 52 48 45 51 61 61 58 56 50 41 33 14 4 2 345 304 241 142 125 194 240 257 303 271 221 190 192 199 198 196 193 187 195 211 215 215 223 228 221 205 199 191 175 169 174 200 286
85 85 90 94 94 88 86 87 87 86 86 88 87 78 69 66 69 73 77 80 78 76 79 73 52 43 73 93 85 68 75 89 86 76 76 87 87 77 72 71 60 41 29 41 62 69 66 56 44 28 6 346 346 350 345 332 352 68 99 216 227 243 285 273 263 256 237 208 198 206 206 196 198 214 222 223 231 237 203 146 148 150 143 130 87 352 316
92 93 91 90 89 86 84 83 80 73 67 68 76 72 58 57 66 71 71 75 77 71 73 78 72 58 57 65 62 47 44 56 59 51 57 92 111 109 99 81 63 43 25 42 82 91 83 58 38 19 353 335 335 333 323 310 313 20 338 293 307 307 273 256 254 261 259 247 238 243 248 253 252 241 229 208 166 120 102 96 106 124 109 33 335 290 260
76 82 79 78 82 85 83 78 76 71 60 56 60 57 48 46 43 37 35 47 70 81 67 68 70 64 53 49 48 43 37 36 37 29 20 23 48 64 57 50 49 37 14 340 189 178 191 223 26 2 336 322 319 319 314 308 308 300 272 257 258 286 287 285 298 316 297 279 255 234 235 268 289 284 278 278 258 181 165 219 265 262 250 244 239 235 231
50 66 68 61 55 49 48 53 58 55 40 34 37 46 54 54 43 26 19 25 40 51 49 52 58 57 47 39 40 40 36 33 34 29 15 8 12 16 11 10 36 36 8 341 309 252 234 241 258 296 308 299 291 293 298 301 307 308 295 273 252 264 290 305 343 9 352 334 322 263 221 242 257 260 264 279 288 277 247 252 260 264 253 236 229 230 242
36 53 62 60 53 48 45 41 35 33 32 31 28 28 35 47 51 40 23 15 19 29 32 32 34 38 35 30 26 26 22 19 21 21 13 4 0 358 352 348 350 351 348 343 335 318 240 206 251 278 279 276 279 284 287 289 295 303 304 292 269 258 268 291 319 330 322 312 308 302 272 256 257 254 245 242 249 255 257 260 270 325 354 311 259 248 263
42 46 53 55 53 52 49 41 33 29 29 31 32 24 15 16 39 57 45 25 18 20 20 18 18 18 14 11 13 12 7 3 6 9 5 357 349 342 342 351 352 345 336 337 338 329 292 237 250 247 237 247 272 277 271 272 284 294 302 302 291 273 263 270 284 283 273 267 275 284 280 268 269 273 268 252 245 244 249 262 276 282 284 282 270 260 264
57 50 52 57 58 53 46 36 29 28 27 27 29 24 12 6 14 30 35 30 24 16 7 3 1 356 352 357 4 359 350 348 354 354 349 349 348 344 344 353 353 346 344 349 349 343 343 342 325 279 232 264 304 305 297 286 275 266 267 279 288 289 289 290 289 284 273 259 258 266 266 263 269 278 277 272 269 262 253 255 263 263 259 262 264 261 265